Simultaneous Nadir Overpasses (SNOs) Predictions

Prediction of SNOs between LANDSAT-8 and NOAA-19 Satellite Orbit:

Table of predicted SNOs for the next 14.0 days since TLE Epoch: 7/26/2014
Index Date (LANDSAT-8) Time (LANDSAT-8) Lat,Lon (LANDSAT-8) SZA (LANDSAT-8 ) Date (NOAA-19) Time (NOAA-19) Lat,Lon (NOAA-19) SZA (NOAA-19 ) Distance(km) Time Diff (sec)
1 07/27/2014 05:06:27 -72.12, -77.10 127.20 07/27/2014 05:05:47 -72.10, -77.12 127.21 1.99 40
2 07/27/2014 05:55:55 71.98, 90.30 52.68 07/27/2014 05:56:43 72.00, 90.33 52.70 3.03 48
3 07/29/2014 09:50:46 -72.16,-148.10 126.65 07/29/2014 09:49:37 -72.16,-148.16 126.64 2.13 69
4 07/29/2014 10:40:14 72.02, 19.30 53.23 07/29/2014 10:40:32 72.02, 19.37 53.23 2.47 18
5 07/31/2014 15:24:34 72.06, -51.71 53.80 07/31/2014 15:24:22 72.10, -51.71 53.84 3.78 12
6 07/31/2014 16:14:09 -71.68, 115.26 126.57 07/31/2014 16:15:19 -71.64, 116.40 126.62 40.13 70
7 08/02/2014 20:08:55 72.10,-122.73 54.40 08/02/2014 20:08:11 72.13,-122.70 54.43 2.77 44
8 08/02/2014 20:58:25 -71.99, 44.71 125.70 08/02/2014 20:59:15 -72.02, 44.74 125.68 3.07 50
9 08/05/2014 00:53:15 72.25, 166.45 55.13 08/05/2014 00:52:03 72.32, 166.00 55.20 16.92 72
10 08/05/2014 01:42:47 -72.04, -26.30 125.08 08/05/2014 01:43:04 -72.05, -26.25 125.06 2.58 17
11 08/07/2014 06:27:10 -72.08, -97.32 124.43 08/07/2014 06:26:53 -72.10, -97.27 124.41 2.81 17




NCC Satellite Simultaneous Nadir Overpasses (SNOs) Prediction Service
